TimeCST,TemperatureF,Dew PointF,Humidity,Sea Level PressureIn,VisibilityMPH,Wind Direction,Wind SpeedMPH,Gust SpeedMPH,PrecipitationIn,Events,Conditions,WindDirDegrees,DateUTC
12:54 AM,41.0,33.1,73,30.18,10.0,South,11.5,-,N/A,,Clear,170,2012-11-17 06:54:00
1:54 AM,41.0,33.1,73,30.16,10.0,South,13.8,23.0,N/A,,Clear,170,2012-11-17 07:54:00
2:54 AM,41.0,32.0,70,30.14,10.0,South,17.3,26.5,N/A,,Clear,170,2012-11-17 08:54:00
3:54 AM,39.9,32.0,73,30.13,10.0,South,13.8,21.9,N/A,,Clear,170,2012-11-17 09:54:00
4:54 AM,39.9,32.0,73,30.12,10.0,South,16.1,25.3,N/A,,Clear,170,2012-11-17 10:54:00
5:54 AM,39.0,32.0,76,30.13,10.0,South,13.8,-,N/A,,Clear,170,2012-11-17 11:54:00
6:54 AM,37.9,32.0,79,30.13,9.0,South,15.0,-,0.00,Snow,Light Snow,180,2012-11-17 12:54:00
7:54 AM,39.9,34.0,79,30.14,10.0,South,17.3,-,0.00,,Clear,180,2012-11-17 13:54:00
8:54 AM,46.0,37.9,73,30.14,10.0,South,20.7,26.5,N/A,,Clear,190,2012-11-17 14:54:00
9:54 AM,51.1,39.0,63,30.13,10.0,SSW,24.2,32.2,N/A,,Clear,210,2012-11-17 15:54:00
10:54 AM,55.0,37.9,53,30.14,10.0,SW,23.0,28.8,N/A,,Clear,220,2012-11-17 16:54:00
11:54 AM,60.1,37.0,42,30.10,10.0,SSW,16.1,-,N/A,,Clear,200,2012-11-17 17:54:00
12:54 PM,64.0,36.0,35,30.07,10.0,SSW,15.0,-,N/A,,Clear,200,2012-11-17 18:54:00
1:54 PM,66.0,36.0,33,30.04,10.0,SSW,13.8,-,N/A,,Clear,210,2012-11-17 19:54:00
2:54 PM,68.0,37.9,33,30.03,10.0,South,17.3,-,N/A,,Clear,190,2012-11-17 20:54:00
3:54 PM,66.9,41.0,39,30.03,10.0,South,19.6,-,N/A,,Clear,190,2012-11-17 21:54:00
4:54 PM,64.9,39.0,39,30.04,10.0,South,12.7,-,N/A,,Clear,180,2012-11-17 22:54:00
5:54 PM,57.0,37.9,49,30.06,10.0,South,9.2,-,N/A,,Clear,170,2012-11-17 23:54:00
6:54 PM,52.0,37.0,57,30.09,10.0,SSE,5.8,-,N/A,,Clear,160,2012-11-18 00:54:00
7:54 PM,50.0,37.9,63,30.09,10.0,SSE,8.1,-,N/A,,Clear,150,2012-11-18 01:54:00
8:54 PM,50.0,39.0,66,30.09,10.0,SSE,10.4,-,N/A,,Clear,160,2012-11-18 02:54:00
9:54 PM,48.9,39.0,69,30.08,10.0,South,13.8,-,N/A,,Clear,180,2012-11-18 03:54:00
10:54 PM,48.0,37.9,68,30.07,10.0,South,12.7,-,N/A,,Clear,170,2012-11-18 04:54:00
11:54 PM,45.0,37.0,74,30.05,10.0,SSE,11.5,-,N/A,,Clear,160,2012-11-18 05:54:00